VOZ1522 YMLT-YMML

Flight info

Callsign VOZ1522
Flight time 0h 54m
Altitude 36000
Route FLIKI H215 RAZZI
Aircraft B737/M-SDE2E3FGHIRWXY/LB1

Departure

Time 2026-04-16 13:36
Airport Launceston Airport (YMLT)

Arrival

Time 2026-04-16 14:30
Airport Melbourne Airport (YMML)
Time Latitude Longitude Altitude Speed Heading
2026-04-16 13:15 -41.54264 147.20637 582 ft 0 kts 294°
2026-04-16 13:29 -41.54264 147.20638 582 ft 1 kts 294°
2026-04-16 13:29 -41.54274 147.20661 582 ft 4 kts 321°
2026-04-16 13:29 -41.54287 147.20679 582 ft 4 kts 243°
2026-04-16 13:30 -41.54276 147.20698 583 ft 4 kts 205°
2026-04-16 13:30 -41.54257 147.20694 583 ft 4 kts 144°
2026-04-16 13:30 -41.54238 147.20677 583 ft 3 kts 148°
2026-04-16 13:30 -41.54235 147.20675 583 ft 0 kts 147°
2026-04-16 13:33 -41.54245 147.20683 583 ft 6 kts 147°
2026-04-16 13:33 -41.54314 147.20745 583 ft 17 kts 148°
2026-04-16 13:33 -41.54423 147.20839 583 ft 19 kts 146°
2026-04-16 13:33 -41.54531 147.20930 589 ft 18 kts 148°
2026-04-16 13:34 -41.54651 147.21032 587 ft 23 kts 147°
2026-04-16 13:34 -41.54802 147.21161 584 ft 29 kts 148°
2026-04-16 13:34 -41.54971 147.21306 583 ft 28 kts 148°
2026-04-16 13:34 -41.55131 147.21444 584 ft 26 kts 147°
2026-04-16 13:35 -41.55228 147.21604 588 ft 20 kts 84°
2026-04-16 13:35 -41.55129 147.21638 591 ft 2 kts 327°
2026-04-16 13:35 -41.55109 147.21620 591 ft 21 kts 326°
2026-04-16 13:35 -41.54741 147.21305 588 ft 102 kts 326°
2026-04-16 13:36 -41.53970 147.20653 750 ft 148 kts 329°
2026-04-16 13:36 -41.53069 147.20001 1662 ft 147 kts 331°
2026-04-16 13:36 -41.52112 147.19438 2470 ft 157 kts 331°
2026-04-16 13:36 -41.51047 147.18854 3135 ft 182 kts 331°
2026-04-16 13:37 -41.49763 147.18137 3449 ft 218 kts 331°
2026-04-16 13:37 -41.48278 147.17315 3836 ft 247 kts 332°
2026-04-16 13:37 -41.46658 147.16436 4873 ft 254 kts 329°
2026-04-16 13:37 -41.45008 147.15547 6072 ft 256 kts 329°
2026-04-16 13:38 -41.43343 147.14650 7137 ft 259 kts 328°
2026-04-16 13:38 -41.41660 147.13745 8220 ft 263 kts 329°
2026-04-16 13:38 -41.39954 147.12827 9305 ft 266 kts 328°
2026-04-16 13:38 -41.38228 147.11900 10343 ft 269 kts 328°
2026-04-16 13:39 -41.36430 147.10923 10823 ft 293 kts 328°
2026-04-16 13:39 -41.34451 147.09837 11183 ft 318 kts 329°
2026-04-16 13:39 -41.32375 147.08720 12068 ft 324 kts 329°
2026-04-16 13:39 -41.30276 147.07603 13127 ft 326 kts 329°
2026-04-16 13:40 -41.28161 147.06481 14138 ft 328 kts 329°
2026-04-16 13:40 -41.26031 147.05350 15115 ft 331 kts 328°
2026-04-16 13:40 -41.23884 147.04206 16089 ft 334 kts 328°
2026-04-16 13:40 -41.21713 147.03049 17055 ft 338 kts 328°
2026-04-16 13:41 -41.19523 147.01881 18024 ft 341 kts 328°
2026-04-16 13:41 -41.17311 147.00701 18858 ft 344 kts 328°
2026-04-16 13:41 -41.15087 146.99516 19748 ft 345 kts 327°
2026-04-16 13:41 -41.12881 146.98343 20611 ft 345 kts 327°
2026-04-16 13:42 -41.10644 146.97155 21513 ft 346 kts 327°
2026-04-16 13:42 -41.08402 146.95962 22376 ft 348 kts 326°
2026-04-16 13:42 -41.06142 146.94758 23163 ft 351 kts 326°
2026-04-16 13:42 -41.03862 146.93545 23847 ft 354 kts 326°
2026-04-16 13:43 -41.01563 146.92323 24470 ft 357 kts 326°
2026-04-16 13:43 -40.99248 146.91094 25096 ft 360 kts 326°
2026-04-16 13:43 -40.96946 146.89873 25704 ft 362 kts 326°
2026-04-16 13:43 -40.94597 146.88629 26306 ft 365 kts 326°
2026-04-16 13:44 -40.92235 146.87378 26880 ft 368 kts 326°
2026-04-16 13:44 -40.89851 146.86117 27410 ft 370 kts 326°
2026-04-16 13:44 -40.87446 146.84846 27941 ft 374 kts 326°
2026-04-16 13:44 -40.85022 146.83566 28462 ft 376 kts 326°
2026-04-16 13:45 -40.82582 146.82278 28982 ft 379 kts 326°
2026-04-16 13:45 -40.80121 146.80981 29492 ft 381 kts 326°
2026-04-16 13:45 -40.77655 146.79685 30135 ft 379 kts 326°
2026-04-16 13:45 -40.75208 146.78403 30698 ft 378 kts 326°
2026-04-16 13:46 -40.72759 146.77117 31116 ft 380 kts 326°
2026-04-16 13:46 -40.70324 146.75835 31513 ft 382 kts 327°
2026-04-16 13:46 -40.67824 146.74522 31987 ft 382 kts 327°
2026-04-16 13:46 -40.65387 146.73244 32413 ft 382 kts 327°
2026-04-16 13:47 -40.62919 146.71951 32901 ft 381 kts 327°
2026-04-16 13:47 -40.60450 146.70659 33322 ft 382 kts 327°
2026-04-16 13:47 -40.57976 146.69363 33753 ft 383 kts 327°
2026-04-16 13:47 -40.55501 146.68068 34136 ft 383 kts 327°
2026-04-16 13:48 -40.53021 146.66771 34431 ft 385 kts 327°
2026-04-16 13:48 -40.50528 146.65467 34711 ft 387 kts 327°
2026-04-16 13:48 -40.48018 146.64156 35027 ft 387 kts 327°
2026-04-16 13:48 -40.45513 146.62850 35328 ft 389 kts 327°
2026-04-16 13:49 -40.42993 146.61537 35601 ft 390 kts 327°
2026-04-16 13:49 -40.40467 146.60223 35869 ft 392 kts 327°
2026-04-16 13:49 -40.37912 146.58890 35857 ft 396 kts 327°
2026-04-16 13:50 -40.32834 146.56258 35875 ft 391 kts 327°
2026-04-16 13:50 -40.27809 146.53659 35891 ft 388 kts 327°
2026-04-16 13:51 -40.22792 146.51057 35894 ft 388 kts 327°
2026-04-16 13:51 -40.18635 146.48905 35865 ft 389 kts 327°
2026-04-16 13:52 -40.13591 146.46300 35895 ft 389 kts 327°
2026-04-16 13:52 -40.08551 146.43701 35900 ft 390 kts 327°
2026-04-16 13:53 -40.03504 146.41102 35900 ft 390 kts 327°
2026-04-16 13:53 -39.98452 146.38505 35909 ft 390 kts 327°
2026-04-16 13:54 -39.93401 146.35905 35902 ft 390 kts 327°
2026-04-16 13:54 -39.88389 146.33326 35907 ft 390 kts 327°
2026-04-16 13:55 -39.83345 146.30734 35915 ft 390 kts 327°
2026-04-16 13:55 -39.78296 146.28143 35913 ft 390 kts 327°
2026-04-16 13:56 -39.73245 146.25557 35884 ft 389 kts 327°
2026-04-16 13:56 -39.68213 146.22988 35910 ft 389 kts 327°
2026-04-16 13:57 -39.63170 146.20426 35931 ft 388 kts 327°
2026-04-16 13:57 -39.58157 146.17883 35927 ft 388 kts 327°
2026-04-16 13:58 -39.50591 146.14051 35930 ft 388 kts 327°
2026-04-16 13:58 -39.45592 146.11522 35933 ft 388 kts 327°
2026-04-16 13:59 -39.40560 146.08982 35935 ft 388 kts 327°
2026-04-16 13:59 -39.35524 146.06437 35941 ft 388 kts 327°
2026-04-16 14:00 -39.32087 146.04700 35940 ft 388 kts 327°
2026-04-16 14:00 -39.27064 146.02164 35932 ft 387 kts 327°
2026-04-16 14:01 -39.22053 145.99637 35938 ft 387 kts 327°
2026-04-16 14:01 -39.17043 145.97115 35957 ft 387 kts 327°
2026-04-16 14:02 -39.12022 145.94591 35956 ft 387 kts 327°
2026-04-16 14:02 -39.07035 145.92088 35959 ft 387 kts 327°
2026-04-16 14:03 -39.02018 145.89575 35950 ft 387 kts 327°
2026-04-16 14:03 -38.96999 145.87063 35968 ft 387 kts 327°
2026-04-16 14:04 -38.91984 145.84558 35969 ft 387 kts 327°
2026-04-16 14:04 -38.86955 145.82049 35971 ft 387 kts 327°
2026-04-16 14:05 -38.81927 145.79545 35950 ft 387 kts 327°
2026-04-16 14:05 -38.76907 145.77050 35972 ft 387 kts 327°
2026-04-16 14:06 -38.71882 145.74554 35973 ft 387 kts 327°
2026-04-16 14:06 -38.69401 145.73323 35524 ft 385 kts 327°
2026-04-16 14:06 -38.66922 145.72101 34972 ft 382 kts 327°
2026-04-16 14:07 -38.64451 145.70878 34398 ft 380 kts 327°
2026-04-16 14:07 -38.61981 145.69652 33645 ft 381 kts 327°
2026-04-16 14:07 -38.59506 145.68426 32988 ft 378 kts 327°
2026-04-16 14:07 -38.57069 145.67226 32471 ft 373 kts 327°
2026-04-16 14:08 -38.54661 145.66037 31971 ft 368 kts 327°
2026-04-16 14:08 -38.52284 145.64863 31464 ft 364 kts 327°
2026-04-16 14:08 -38.49932 145.63704 30960 ft 361 kts 327°
2026-04-16 14:08 -38.47599 145.62548 30483 ft 357 kts 326°
2026-04-16 14:09 -38.45376 145.61219 29884 ft 351 kts 321°
2026-04-16 14:09 -38.43225 145.59747 29299 ft 348 kts 320°
2026-04-16 14:09 -38.41107 145.58262 28766 ft 344 kts 320°
2026-04-16 14:09 -38.39022 145.56802 28262 ft 339 kts 320°
2026-04-16 14:10 -38.36965 145.55367 27757 ft 336 kts 320°
2026-04-16 14:10 -38.34914 145.53942 27239 ft 335 kts 321°
2026-04-16 14:10 -38.32891 145.52542 26741 ft 335 kts 321°
2026-04-16 14:10 -38.30835 145.51121 26226 ft 337 kts 321°
2026-04-16 14:11 -38.28768 145.49696 25723 ft 339 kts 321°
2026-04-16 14:11 -38.26697 145.48275 25207 ft 336 kts 321°
2026-04-16 14:11 -38.24645 145.46871 24715 ft 332 kts 321°
2026-04-16 14:11 -38.22614 145.45482 24217 ft 330 kts 321°
2026-04-16 14:12 -38.20602 145.44106 23727 ft 327 kts 322°
2026-04-16 14:12 -38.18601 145.42737 23155 ft 326 kts 322°
2026-04-16 14:12 -38.16616 145.41380 22611 ft 323 kts 322°
2026-04-16 14:12 -38.14647 145.40035 22128 ft 319 kts 322°
2026-04-16 14:13 -38.12702 145.38706 21613 ft 317 kts 322°
2026-04-16 14:13 -38.10756 145.37375 21124 ft 318 kts 322°
2026-04-16 14:13 -38.08806 145.36043 20644 ft 318 kts 322°
2026-04-16 14:13 -38.06866 145.34721 20149 ft 315 kts 322°
2026-04-16 14:14 -38.04970 145.33430 19678 ft 312 kts 322°
2026-04-16 14:14 -38.03064 145.32134 19189 ft 310 kts 323°
2026-04-16 14:14 -38.01174 145.30844 18701 ft 307 kts 322°
2026-04-16 14:14 -37.99294 145.29533 18101 ft 308 kts 322°
2026-04-16 14:15 -37.97421 145.28216 17530 ft 307 kts 322°
2026-04-16 14:15 -37.95562 145.26911 17035 ft 304 kts 322°
2026-04-16 14:15 -37.93720 145.25618 16492 ft 303 kts 322°
2026-04-16 14:15 -37.91878 145.24327 15957 ft 301 kts 322°
2026-04-16 14:16 -37.90051 145.23048 15464 ft 299 kts 322°
2026-04-16 14:16 -37.88235 145.21779 14955 ft 297 kts 322°
2026-04-16 14:16 -37.86428 145.20517 14446 ft 296 kts 322°
2026-04-16 14:16 -37.84622 145.19255 13876 ft 296 kts 323°
2026-04-16 14:17 -37.82796 145.18014 13248 ft 298 kts 324°
2026-04-16 14:17 -37.80968 145.16800 12739 ft 296 kts 324°
2026-04-16 14:17 -37.79153 145.15598 12271 ft 292 kts 324°
2026-04-16 14:17 -37.77384 145.14424 11792 ft 289 kts 324°
2026-04-16 14:18 -37.75617 145.13249 11331 ft 286 kts 323°
2026-04-16 14:18 -37.73861 145.12081 10875 ft 283 kts 324°
2026-04-16 14:18 -37.72126 145.10933 10407 ft 281 kts 324°
2026-04-16 14:18 -37.70383 145.09885 10240 ft 269 kts 326°
2026-04-16 14:19 -37.68738 145.08941 10085 ft 249 kts 326°
2026-04-16 14:19 -37.67185 145.08046 9928 ft 244 kts 325°
2026-04-16 14:19 -37.65636 145.07140 9594 ft 243 kts 325°
2026-04-16 14:19 -37.64109 145.06246 9226 ft 241 kts 325°
2026-04-16 14:20 -37.62595 145.05362 8895 ft 239 kts 326°
2026-04-16 14:20 -37.61074 145.04465 8540 ft 245 kts 326°
2026-04-16 14:20 -37.59526 145.03553 8174 ft 245 kts 327°
2026-04-16 14:20 -37.57983 145.02650 7831 ft 243 kts 327°
2026-04-16 14:21 -37.56474 145.01768 7490 ft 241 kts 327°
2026-04-16 14:21 -37.54946 145.00870 7150 ft 244 kts 327°
2026-04-16 14:21 -37.53410 144.99942 6793 ft 248 kts 327°
2026-04-16 14:21 -37.51849 144.98993 6434 ft 247 kts 327°
2026-04-16 14:22 -37.50305 144.98056 6164 ft 243 kts 328°
2026-04-16 14:22 -37.48808 144.97152 6027 ft 237 kts 327°
2026-04-16 14:22 -37.47317 144.96248 5712 ft 237 kts 327°
2026-04-16 14:22 -37.45865 144.95302 5392 ft 231 kts 317°
2026-04-16 14:23 -37.44909 144.93792 5098 ft 218 kts 289°
2026-04-16 14:23 -37.44571 144.91955 4807 ft 218 kts 269°
2026-04-16 14:23 -37.44730 144.90047 4618 ft 219 kts 259°
2026-04-16 14:23 -37.45001 144.88193 4459 ft 210 kts 258°
2026-04-16 14:24 -37.45265 144.86423 4365 ft 200 kts 259°
2026-04-16 14:24 -37.45510 144.84742 4273 ft 190 kts 259°
2026-04-16 14:24 -37.45737 144.83161 4184 ft 181 kts 258°
2026-04-16 14:24 -37.46031 144.81680 4037 ft 170 kts 239°
2026-04-16 14:25 -37.46947 144.80920 4020 ft 162 kts 192°
2026-04-16 14:25 -37.48037 144.80814 3846 ft 155 kts 189°
2026-04-16 14:25 -37.49096 144.80801 3645 ft 150 kts 185°
2026-04-16 14:25 -37.50113 144.80828 3470 ft 145 kts 185°
2026-04-16 14:26 -37.51112 144.80902 3272 ft 140 kts 181°
2026-04-16 14:26 -37.52057 144.81034 3090 ft 134 kts 179°
2026-04-16 14:26 -37.52971 144.81188 2901 ft 132 kts 178°
2026-04-16 14:26 -37.53849 144.81347 2732 ft 127 kts 180°
2026-04-16 14:27 -37.54741 144.81509 2574 ft 132 kts 180°
2026-04-16 14:27 -37.55647 144.81677 2396 ft 131 kts 179°
2026-04-16 14:27 -37.56549 144.81847 2213 ft 131 kts 179°
2026-04-16 14:27 -37.57447 144.82018 2046 ft 132 kts 179°
2026-04-16 14:28 -37.58354 144.82186 1871 ft 130 kts 178°
2026-04-16 14:28 -37.59241 144.82351 1682 ft 127 kts 177°
2026-04-16 14:28 -37.60133 144.82518 1513 ft 131 kts 177°
2026-04-16 14:28 -37.61015 144.82683 1328 ft 129 kts 175°
2026-04-16 14:29 -37.61914 144.82853 1173 ft 131 kts 175°
2026-04-16 14:29 -37.62817 144.83020 969 ft 128 kts 174°
2026-04-16 14:29 -37.63689 144.83182 778 ft 124 kts 175°
2026-04-16 14:29 -37.64528 144.83349 631 ft 121 kts 175°
2026-04-16 14:30 -37.65365 144.83504 510 ft 119 kts 174°
2026-04-16 14:30 -37.66145 144.83647 411 ft 107 kts 174°
2026-04-16 14:30 -37.66741 144.83754 395 ft 66 kts 172°
2026-04-16 14:30 -37.66994 144.83833 385 ft 33 kts 154°
2026-04-16 14:31 -37.67121 144.83945 381 ft 5 kts 142°
2026-04-16 14:31 -37.67131 144.83954 380 ft 0 kts 142°
2026-04-16 14:32 -37.67135 144.83958 380 ft 3 kts 142°
2026-04-16 14:32 -37.67181 144.84003 379 ft 13 kts 140°
2026-04-16 14:33 -37.67222 144.84126 378 ft 18 kts 90°
2026-04-16 14:33 -37.67211 144.84280 381 ft 17 kts 82°
2026-04-16 14:33 -37.67199 144.84427 383 ft 17 kts 92°
2026-04-16 14:33 -37.67208 144.84569 385 ft 16 kts 82°
2026-04-16 14:34 -37.67208 144.84648 386 ft 7 kts 141°
2026-04-16 14:34 -37.67256 144.84659 385 ft 5 kts 172°
2026-04-16 14:34 -37.67268 144.84661 385 ft 0 kts 172°